Weather History for KNXP - March, 2013

Change the Weather History Date:

Tuesday, March 19, 2013

  Actual Average (KPSP) Record (KPSP)
Temperature  
Mean Temperature 71 °F 66 °F  
Max Temperature 81 °F 79 °F 97 °F (1997)
Min Temperature 62 °F 53 °F 36 °F (1955)
Degree Days  
Heating Degree Days 0 2  
Month to date heating degree days 54  
Since 1 July heating degree days 832  
Cooling Degree Days 6 3  
Month to date cooling degree days 46  
Year to date cooling degree days 73  
Growing Degree Days 21 (Base 50)    
Moisture  
Dew Point 22 °F    
Average Humidity 17    
Maximum Humidity 28    
Minimum Humidity 9    
Precipitation  
Precipitation 0.00 in 0.01 in 0.47 in (1994)
Month to date precipitation 0.53  
Year to date precipitation 2.56  
Snow  
Snow 0.00 in - - ()
Month to date snowfall  
Since 1 July snowfall  
Snow Depth -    
Sea Level Pressure  
Sea Level Pressure 29.98 in    
Wind  
Wind Speed 11 mph (NW)    
Max Wind Speed 21 mph    
Max Gust Speed 29 mph    
Visibility 10 miles    
Events      
T = Trace of Precipitation, MM = Missing Value Source: NWS Daily Summary

Daily Weather History Graph

Daily Weather History Graph

Search for Another Location

Airport or City:

Trip Planner

Search our weather history database for the weather conditions in past years. The results will help you decide how hot, cold, wet, or windy it might be!

Date:

Astronomy

Mar. 19, 2013 Rise Set
Actual Time 6:49 AM PDT 6:55 PM PDT
Civil Twilight 6:24 AM PDT 7:20 PM PDT
Nautical Twilight 5:55 AM PDT 7:50 PM PDT
Astronomical Twilight 5:25 AM PDT 8:19 PM PDT
Moon 11:57 AM PDT (3/19) 1:31 AM PDT (3/19)
Length of Visible Light 12h 56m
Length of Day
12h 06m
Waxing Crescent, 51% of the Moon is Illuminated
Mar 19
Waxing Crescent
Mar 27
Full
Apr 2
Last Quarter
Apr 10
New
Apr 18
First Quarter

Hourly Weather History & Observations

Time (PDT) Temp. Dew Point Humidity Pressure Visibility Wind Dir Wind Speed Gust Speed Precip Events Conditions
12:56 AM 66.9 °F 17.1 °F 15% 29.94 in 10.0 mi WNW 17.3 mph 28.8 mph N/A   Scattered Clouds
1:56 AM 66.0 °F 16.0 °F 15% 29.94 in 10.0 mi North - - N/A   Clear
2:56 AM 64.0 °F 16.0 °F 16% 29.92 in 10.0 mi North - - N/A   Clear
3:56 AM 63.0 °F 17.1 °F 17% 29.92 in 10.0 mi North - - N/A   Clear
4:56 AM 63.0 °F 24.1 °F 23% 29.93 in 10.0 mi North - - N/A   Clear
5:56 AM 62.1 °F 25.0 °F 24% 29.95 in 10.0 mi North - - N/A   Clear
6:56 AM 62.1 °F 25.0 °F 24% 29.98 in 10.0 mi WNW 10.4 mph - N/A   Scattered Clouds
7:56 AM 63.0 °F 25.0 °F 24% 30.00 in 10.0 mi WNW 9.2 mph - N/A   Partly Cloudy
8:56 AM 66.9 °F 25.0 °F 21% 30.01 in 10.0 mi WNW 11.5 mph 17.3 mph N/A   Partly Cloudy
9:56 AM 71.1 °F 25.0 °F 18% 30.01 in 10.0 mi NW 13.8 mph 23.0 mph N/A   Partly Cloudy
10:56 AM 73.9 °F 25.0 °F 16% 30.01 in 10.0 mi NW 20.7 mph 28.8 mph N/A   Partly Cloudy
11:56 AM 75.9 °F 23.0 °F 14% 30.00 in 9.0 mi WNW 13.8 mph 23.0 mph N/A   Partly Cloudy
12:56 PM 78.1 °F 17.1 °F 10% 29.99 in 10.0 mi WNW 11.5 mph - N/A   Scattered Clouds
1:56 PM 80.1 °F 16.0 °F 9% 29.98 in 10.0 mi North 10.4 mph 17.3 mph N/A   Scattered Clouds
2:56 PM 79.0 °F 17.1 °F 10% 29.96 in 10.0 mi NNE 8.1 mph - N/A   Scattered Clouds
3:56 PM 79.0 °F 17.1 °F 10% 29.96 in 10.0 mi North 8.1 mph 16.1 mph N/A   Scattered Clouds
4:56 PM 79.0 °F 17.1 °F 10% 29.95 in 10.0 mi Calm Calm - N/A   Clear
5:56 PM 78.1 °F 18.0 °F 10% 29.96 in 10.0 mi Calm Calm - N/A   Scattered Clouds
6:56 PM 75.9 °F 19.0 °F 12% 29.97 in 10.0 mi Calm Calm - N/A   Scattered Clouds
7:56 PM 69.1 °F 18.0 °F 14% 29.98 in 10.0 mi South 6.9 mph - N/A   Scattered Clouds
8:56 PM 66.9 °F 18.0 °F 15% 30.00 in 10.0 mi WSW 11.5 mph - N/A   Partly Cloudy
9:56 PM 69.1 °F 28.9 °F 22% 30.03 in 10.0 mi WNW 9.2 mph - N/A   Partly Cloudy
10:56 PM 70.0 °F 35.1 °F 28% 30.04 in 10.0 mi WNW 13.8 mph 20.7 mph N/A   Partly Cloudy
11:56 PM 68.0 °F 34.0 °F 28% 30.03 in 10.0 mi NW 10.4 mph - N/A   Clear